Theta_e
319 318 318 317 318 318 318 320 321 321 320 323 332 334 339 339 338 337 337 337 338 337 336 334 334 334 334 333 331 331 331 332
318 317 317 317 317 316 316 317 318 320 320 318 329 333 337 335 337 338 337 337 337 336 335 333 333 332 333 331 330 329 330 330
318 316 316 316 315 315 315 315 316 316 318 319 322 331 332 333 335 338 337 336 336 335 334 333 332 332 332 331 331 328 329 329
317 315 314 313 313 312 312 312 313 314 316 318 320 328 332 334 335 337 337 336 335 334 333 332 331 331 331 333 330 329 329 329
315 314 312 311 310 308 307 308 309 310 313 316 321 323 332 333 333 335 335 335 334 332 332 332 332 330 331 331 330 330 330 329
313 311 309 308 307 305 303 304 305 307 308 312 318 322 332 332 333 334 335 334 333 332 331 331 331 331 331 331 331 331 330 329
311 309 308 307 306 304 301 301 302 304 306 309 315 324 327 333 333 334 334 334 333 332 332 332 331 330 330 330 330 331 331 329
310 308 307 305 304 302 300 299 300 301 304 307 314 324 326 335 333 335 333 332 333 332 331 329 328 324 326 329 330 330 330 329
308 306 305 304 302 301 299 297 298 299 302 307 313 328 329 334 333 334 333 332 333 334 329 326 323 321 324 329 330 331 330 329
306 305 303 302 301 299 297 296 297 298 302 305 313 334 334 335 333 333 333 334 335 331 328 327 325 327 329 329 330 330 328 328
305 303 301 300 299 298 295 295 296 297 300 303 312 331 333 332 332 332 331 332 331 330 328 328 328 329 329 329 330 328 327 327
303 302 300 299 298 297 294 294 294 295 298 301 307 328 330 331 331 331 331 330 330 328 327 328 328 328 327 327 327 328 327 326
301 300 299 298 297 295 293 292 293 293 295 299 302 309 318 327 328 328 329 328 328 328 328 326 326 327 327 326 327 326 326 326
300 300 299 297 296 294 291 291 291 291 293 296 298 299 303 313 324 327 326 327 327 325 325 324 325 326 327 325 326 326 326 325
298 298 298 296 295 294 290 289 290 291 291 294 295 296 297 300 310 322 324 324 324 325 326 325 325 324 324 325 324 324 324 324
296 296 295 294 293 292 291 289 289 289 290 291 292 294 295 295 304 306 315 323 323 323 322 322 322 322 322 322 322 322 322 323
294 294 293 293 291 290 290 290 288 288 288 289 290 291 293 293 296 298 296 304 306 312 316 315 315 314 316 319 320 319 320 319
292 292 291 290 289 289 289 289 289 287 287 287 288 289 290 291 292 295 293 293 293 292 299 306 304 305 309 315 314 313 311 308
290 289 289 288 288 288 288 288 288 288 286 286 286 287 287 288 290 290 293 292 291 291 291 292 294 294 299 304 305 304 300 298
Wind_Speed
6 9 11 13 15 16 19 21 19 18 18 22 26 28 28 29 29 29 27 32 35 30 25 24 25 26 19 19 18 19 18 16
9 12 13 15 16 18 19 21 21 20 19 20 25 28 30 32 33 33 29 27 35 32 28 26 28 27 23 22 17 20 18 17
11 16 18 18 18 19 20 21 23 22 21 21 25 27 29 31 30 30 27 31 34 34 31 30 29 25 25 23 20 17 15 23
10 13 17 20 23 23 23 23 23 24 23 23 24 28 27 24 28 29 34 32 33 33 32 31 27 25 25 22 22 21 15 22
10 11 15 19 20 23 24 23 24 24 23 23 24 28 28 32 31 33 32 34 36 36 37 37 32 28 25 24 24 22 20 20
11 13 16 18 20 24 25 23 25 26 24 23 26 29 32 30 26 28 29 35 40 38 38 37 40 36 31 26 24 26 25 22
12 15 17 18 21 22 24 24 27 26 25 25 27 32 35 30 27 26 27 31 36 39 37 34 33 30 31 33 31 27 26 24
13 16 18 22 24 26 26 25 30 29 28 27 26 32 37 31 30 24 22 27 28 35 37 36 39 37 33 34 29 29 28 28
15 16 19 22 25 27 28 29 33 35 32 31 28 27 31 29 26 21 24 25 29 27 36 41 32 39 29 29 29 28 27 29
15 17 21 24 25 28 29 29 32 33 33 34 29 22 25 21 22 23 25 26 26 25 26 25 24 22 29 32 30 26 24 29
14 16 21 23 24 26 28 27 29 33 35 33 31 12 16 19 25 24 27 26 22 22 22 21 24 30 31 31 24 24 26 27
13 14 21 23 24 26 28 32 34 36 36 35 32 9 13 17 21 21 27 25 25 28 25 23 25 23 25 23 23 23 23 25
12 14 21 24 25 28 29 30 32 34 33 30 27 19 11 14 20 25 28 27 27 29 35 28 18 22 20 20 21 20 24 25
12 13 16 20 24 27 30 32 31 37 33 30 26 25 20 15 4 15 22 21 24 23 23 27 27 21 20 22 24 25 25 24
12 12 14 20 23 26 29 31 32 35 26 25 26 27 24 20 12 3 12 16 16 18 19 23 25 23 21 23 23 21 21 18
11 12 13 19 23 25 28 30 31 29 29 33 32 27 30 20 16 12 7 11 15 19 24 26 26 24 19 18 19 18 16 15
12 13 15 18 22 24 25 28 30 29 30 28 26 32 26 24 22 18 19 12 12 19 24 22 20 15 14 18 16 13 14 13
11 12 14 17 22 22 23 24 25 28 28 30 32 30 27 29 26 25 26 27 24 18 19 23 19 12 8 10 14 12 11 9
11 13 15 18 20 21 21 22 24 25 28 31 33 33 32 31 26 26 28 29 32 31 28 23 22 17 12 11 13 12 12 10
Wind_Direction
3 350 343 334 329 323 316 313 310 302 287 253 242 236 231 227 227 224 217 212 211 209 208 206 202 201 201 203 204 204 204 207
353 355 349 340 333 323 316 310 309 306 291 271 243 235 229 227 226 226 217 213 208 204 206 205 206 201 197 199 199 199 195 193
357 353 349 346 337 331 320 311 308 303 291 276 264 242 238 234 230 225 216 214 206 201 202 203 201 197 193 196 194 188 194 192
357 353 347 340 336 333 325 315 308 303 293 280 268 257 243 229 226 222 217 211 207 198 200 200 198 198 195 192 192 190 183 190
357 348 344 340 335 329 325 318 311 306 298 283 263 258 235 228 227 217 214 203 202 200 201 201 198 192 194 194 201 200 198 191
356 351 341 334 338 331 326 323 316 310 301 283 266 254 246 237 230 221 211 198 200 202 203 191 193 197 200 201 200 208 207 200
354 348 342 339 338 336 328 331 322 312 304 289 262 259 247 233 224 219 203 195 194 200 204 193 199 188 189 204 203 209 209 210
351 350 346 343 340 338 335 337 322 320 311 298 274 261 237 232 228 214 196 199 191 197 193 196 201 209 202 202 195 209 210 212
355 352 348 342 340 340 340 342 328 326 317 308 291 256 225 226 223 213 204 204 208 203 205 202 207 206 203 197 197 207 211 215
357 353 354 342 346 342 341 342 330 324 325 321 312 241 216 213 213 215 212 213 213 210 208 204 198 219 196 196 194 203 208 213
360 357 351 343 349 344 342 348 335 335 334 331 328 230 213 211 208 208 199 207 199 186 183 181 192 203 203 186 194 202 211 214
358 354 352 351 351 350 347 354 349 343 340 340 346 279 219 208 199 196 193 183 181 181 188 192 194 196 195 192 200 201 210 217
358 358 358 355 357 354 357 354 351 344 339 344 350 6 13 196 195 188 190 184 182 177 173 179 194 201 201 203 198 206 207 208
2 5 359 357 0 1 358 355 350 349 344 355 359 7 12 12 249 186 185 180 185 192 197 178 186 205 207 215 214 210 209 215
6 4 359 359 3 8 1 357 354 347 344 3 7 7 11 6 27 97 196 197 190 187 184 164 173 190 196 203 205 209 222 222
8 4 3 358 5 10 5 1 353 353 1 9 9 5 21 9 35 49 90 172 172 168 157 156 160 171 188 202 207 211 215 223
10 6 7 360 10 7 4 3 359 360 11 11 8 21 18 25 36 40 41 96 114 158 147 144 141 144 183 197 197 205 209 208
8 4 5 6 12 9 8 3 3 9 12 13 14 18 22 29 39 55 48 54 55 48 108 126 114 107 139 185 190 187 176 175
15 6 7 14 16 15 14 13 12 15 16 18 17 20 25 28 34 46 60 57 53 44 51 74 96 84 101 134 151 135 122 110